Content
SEND FEEDBACK

Daily
Averages
Monthly
Summary
French Polynesia

PAPEETE, FRENCH POLYNESIA


Home > Oceania > French Polynesia
Elevation: 2 meters     Latitude: 17 33S     Longitude: 149 36W

WEATHER
 
SELECT A DAY
Number of Records: 214,666;   Date Range: 6/30/96 - 10/29/14
 
SHARE

PRINT THIS DATA

[ ← Previous Day ]
WEATHER ALMANAC - 26 JULY, 2013
[ Next Day → ]
[ °F ]   °C
Weather ElementAverageHighLow
Temperature23.1 °C26.1 °C (11:00 am)19 °C (6:12 am)
Dewpoint15.7 °C19 °C (7:30 pm)12.8 °C (5:00 am)
Humidity62.2 %78 % (10:30 pm)39 % (11:00 am)
Barometer1015.6 hPa1017.6 hPa (11:00 pm)1014.2 hPa (3:00 am)
Wind Speed9.7 km/h21.6 km/h (8:00 am)
Weather ElementAverage
Visibility13 km
Wind DirectionSSE (172.3 °)

Weather ElementTotal
Precipitation---
Cooling Degree Days4.2 (Base 18.3)
Growing Degree Days12.6 (Base 10)
Averaged from 56 records on 26 July, 2013
WEATHER CONDITIONS BREAKOUT
WIND DIRECTION BREAKOUT
WEATHER BY HOUR - 26 JULY, 2013
[ °F ]   °C
Local TimeTemperatureDewpointHumidityBarometerVisibilityWind DirectionWind SpeedGust SpeedPrecipitationEventsConditions
12:30 AM21 °C14 °C64 %1015.2 hPa10 kmVariable1.9 km/hPartly Cloudy
1:00 AM21 °C15 °C68 %1015.2 hPa10 kmENE (70°)9.3 km/hPartly Cloudy
1:30 AM21 °C14 °C64 %1015.2 hPa10 kmSouth (170°)5.6 km/hPartly Cloudy
2:00 AM20 °C14.4 °C63 %1015.6 hPa19.3 kmESE (110°)5.6 km/hPartly Cloudy
2:00 AM20 °C15 °C73 %1015.2 hPa10 kmESE (110°)5.6 km/hPartly Cloudy
2:30 AM20 °C15 °C73 %1015.2 hPa10 kmESE (110°)5.6 km/hPartly Cloudy
3:00 AM21 °C15 °C68 %1014.2 hPa10 kmVariable3.7 km/hScattered Clouds
3:30 AM21 °C15 °C68 %1014.2 hPa10 kmSouth (170°)7.4 km/hOvercast
4:00 AM21 °C13 °C60 %1014.2 hPa10 kmSouth (170°)5.6 km/hMostly Cloudy
4:30 AM21 °C14 °C64 %1014.2 hPa10 kmEast (80°)5.6 km/hPartly Cloudy
5:00 AM20 °C12.8 °C55 %1015.2 hPa59.5 kmSouth (170°)14.3 km/hClear
5:00 AM20 °C13 °C64 %1015.2 hPa10 kmSouth (170°)7.4 km/h
5:30 AM20 °C14 °C68 %1015.2 hPa10 kmSSE (160°)7.4 km/h
6:00 AM20 °C14 °C68 %1015.2 hPa10 kmENE (70°)7.4 km/hPartly Cloudy
6:12 AM19 °C14 °C73 %1015.2 hPa10 kmVariable3.7 km/hPartly Cloudy
6:30 AM20 °C13 °C64 %1016.3 hPa10 kmVariable1.9 km/hScattered Clouds
7:00 AM20 °C13 °C64 %1016.3 hPa10 kmSouth (170°)11.1 km/hScattered Clouds
7:30 AM21 °C14 °C64 %1016.3 hPa10 kmSouth (190°)9.3 km/hScattered Clouds
8:00 AM22.2 °C14.4 °C53 %1016.9 hPa30.6 kmSW (220°)21.6 km/hPartly Cloudy
8:00 AM22 °C15 °C64 %1016.3 hPa10 kmSW (220°)11.1 km/hScattered Clouds
8:30 AM23 °C14 °C57 %1016.3 hPa10 kmVariable3.7 km/hMostly Cloudy
9:00 AM25 °C14 °C50 %1017.3 hPa10 kmNNE (20°)5.6 km/hScattered Clouds
9:30 AM25 °C15 °C54 %1017.3 hPa10 kmNNE (20°)13 km/hScattered Clouds
10:00 AM25 °C15 °C54 %1017.3 hPa10 kmVariable3.7 km/hPartly Cloudy
10:30 AM26 °C15 °C51 %1016.3 hPa10 kmWNW (290°)7.4 km/hPartly Cloudy
11:00 AM26.1 °C15 °C39 %1016.6 hPa40.2 kmWNW (290°)9.3 km/hScattered Clouds
11:00 AM26 °C15 °C51 %1016.3 hPa10 kmWNW (290°)9.3 km/hPartly Cloudy
11:30 AM26 °C15 °C51 %1016.3 hPa10 kmWNW (290°)13 km/hPartly Cloudy
12:00 PM25 °C14 °C50 %1015.2 hPa10 kmWNW (300°)16.7 km/hScattered Clouds
12:30 PM26 °C15 °C51 %1015.2 hPa10 kmWNW (290°)18.5 km/hScattered Clouds
1:00 PM26 °C16 °C54 %1014.2 hPa10 kmWNW (300°)16.7 km/hScattered Clouds
1:30 PM26 °C16 °C54 %1014.2 hPa10 kmNW (320°)14.8 km/hScattered Clouds
2:00 PM25 °C16.1 °C48 %1014.6 hPa40.2 kmWNW (300°)18.5 km/hPartly Cloudy
2:00 PM25 °C16 °C57 %1014.2 hPa10 kmWNW (300°)18.5 km/hScattered Clouds
2:30 PM26 °C15 °C51 %1014.2 hPa10 kmWNW (300°)16.7 km/hScattered Clouds
3:00 PM26 °C17 °C57 %1014.2 hPa10 kmWest (280°)13 km/hMostly Cloudy
3:30 PM25 °C17 °C61 %1014.2 hPa10 kmWNW (300°)13 km/hMostly Cloudy
4:00 PM25 °C17 °C61 %1014.2 hPa10 kmWNW (300°)16.7 km/hMostly Cloudy
4:30 PM25 °C17 °C61 %1014.2 hPa10 kmNorth (360°)7.4 km/hMostly Cloudy
5:00 PM25 °C17.2 °C53 %1014.9 hPa19.3 kmNW (320°)10.8 km/hMostly Cloudy
5:00 PM25 °C17 °C61 %1014.2 hPa10 kmVariable5.6 km/hMostly Cloudy
5:30 PM24 °C17 °C65 %1015.2 hPa10 kmVariable3.7 km/hScattered Clouds
6:00 PM24 °C17 °C65 %1015.2 hPa10 kmNW (310°)7.4 km/hScattered Clouds
6:30 PM24 °C18 °C69 %1015.2 hPa10 kmWest (270°)11.1 km/hScattered Clouds
7:00 PM24 °C18 °C69 %1016.3 hPa10 kmWSW (250°)9.3 km/hScattered Clouds
7:30 PM24 °C19 °C73 %1016.3 hPa10 kmWest (270°)14.8 km/hScattered Clouds
8:00 PM23.9 °C18.3 °C64 %1016.9 hPa19.3 kmWest (260°)11.1 km/hMostly Cloudy
8:00 PM24 °C18 °C69 %1016.3 hPa10 kmWest (260°)11.1 km/hScattered Clouds
8:30 PM24 °C18 °C69 %1017.3 hPa10 kmWest (270°)11.1 km/hScattered Clouds
9:00 PM24 °C18 °C69 %1017.3 hPa10 kmWNW (290°)7.4 km/hScattered Clouds
9:30 PM23 °C18 °C73 %1017.3 hPa10 kmNE (50°)11.1 km/hScattered Clouds
10:00 PM23 °C18 °C73 %1017.3 hPa10 kmNE (50°)14.8 km/hScattered Clouds
10:30 PM22 °C18 °C78 %1017.3 hPa10 kmEast (80°)9.3 km/hScattered Clouds
11:00 PM22.2 °C17.8 °C69 %1017.6 hPa19.3 kmENE (60°)3.7 km/hPartly Cloudy
11:00 PM23 °C18 °C73 %1017.3 hPa10 kmVariable3.7 km/hScattered Clouds
11:30 PM22 °C18 °C78 %1017.3 hPa10 kmVariable3.7 km/hScattered Clouds
Hourly data recorded from NTAA, located 0 kilometers away from Papeete, French Polynesia







STORIES FROM OUR PARTNERS